Location: Unspecified
(49.8670°N, 0.0000°E)
Time: 13:56:10
(UTC+00:00)

Vanguard 1 - Pass Details

Date: 21 June 2019
Orbit: 655 x 3829 km, 34.2° (Epoch: 16 August)

Event Time Altitude Azimuth Distance (km) Brightness Sun altitude
Rises 07:53:09 0° 264° (W) 5,154 13.3 35.5°
Reaches altitude 10° 07:58:52 10° 244° (WSW) 3,471 12.5 36.4°
Maximum altitude 08:02:54 14° 214° (SW) 2,679 12.2 37.0°
Drops below altitude 10° 08:06:08 10° 183° (S) 2,652 12.4 37.6°
Sets 08:09:31 0° 157° (SSE) 3,278 13.1 38.1°
